Location: Arcones
(41.1182°N, 3.7238°W)
Time: 15:29:04
(UTC+00:00)

Landsat 7 - Pass Details

Date: 11 December 2025
Orbit: 680 x 682 km, 97.9° (Epoch: 16 January)

Event Time Altitude Azimuth Distance (km) Brightness Sun altitude
Rises 17:40:10 0° 160° (SSE) 3,028 7.1 -9.9°
Reaches altitude 10° 17:42:24 10° 159° (SSE) 2,118 6.3 -10.3°
Maximum altitude 17:47:01 72° 75° (ENE) 719 3.7 -11.1°
Drops below altitude 10° 17:51:40 10° 352° (N) 2,133 6.2 -12.0°
Sets 17:53:55 0° 350° (N) 3,053 7.0 -12.3°
